星链-3260 (STARLINK-3260 )

导读

STARLINK-3260是美国SpaceX公司星链星座的成员,于2021年12月18日发射入轨。星链计划旨在构建全球低轨卫星互联网星座,该卫星运行在近地轨道,属于星链第一代组网卫星,为全球偏远地区、灾害场景等提供宽带互联网接入服务。作为已组网的星链卫星之一,它和其他星链卫星共同构成覆盖全球的卫星通信网络,截至2026年,星链已为全球上百个国家提供服务,STARLINK-3260也持续为星座的全球覆盖能力提供支撑。

基本信息
目录编号:
50205
目录名称:
STARLINK-3260
国际标识:
2021-125BB
轨道中心:
EARTH
卫星名称:
星链-3260
卫星全名:
星链-3260 (STARLINK-3260 )
卫星状态:
在轨 (已飞行1721 天)
发射日期:
2021-12-18 UTC
国别 :
美国 (US)
星等 :
--
轨道信息
数据来源 国际轨道数据
星历时间: 2026-09-03T00:00:02+0800
1天前
查看轨道信息
半长轴: 6848.893km
偏心率: 0.0001174
轨道倾角: 53.158°
近地点辐角 110.132°
升交点赤经 131.841°
平近点角 340.573°
近地点: 469.951km
远地点: 471.561km
周期: 94.014分钟
每日圈数: 15.316949
详细信息
固有亮度:
5
最大亮度:
2.5
卫星平台:
Starlink v1.5
覆盖范围:
全球
运营商:
太空探索技术公司
运营商所在国:
美国
制造商(研发单位):
太空探索技术公司
制造商所在国:
美国
使用方式:
暂无
卫星简介
星链(Starlink)计划是由太空探索技术公司(SpaceX)提出的一个巨型低轨卫星互联网星座项目,计划在2019年至2024年间在太空搭建由约1.2万颗卫星组成的“星链”网络,其中1584颗将部署在地球上空550千米处的近地轨道,并从2020年开始工作。该卫星仍在工作。
2D轨道图
3D轨道图
轨道高度分析图
轨道倾角分析图
轨道综合分析图
查看轨道综合分析图
交会数据列表
事件ID 空间交会对象 最接近时刻(TCA) 交会距离 交会风险概率(CRP) 交会风险指数(CRI) 操作
CDM_260905-095205-020505-893221
2026-09-05T
09:52:20+0000
1.049 km
极远距离
1.408361E-5 中风险 0.58
CDM_260904-225805-020506-948621
2026-09-04T
22:58:02+0000
2.733 km
极远距离
1.485737E-6 低风险 0.38
CDM_260905-065005-020506-954721
2026-09-05T
06:50:39+0000
2.795 km
极远距离
1.451366E-6 低风险 0.38
CDM_260904-054305-020506-815421
2026-09-04T
05:43:08+0000
2.886 km
极远距离
1.368092E-6 低风险 0.38
CDM_260904-054205-020506-921421
2026-09-04T
05:42:09+0000
2.897 km
极远距离
1.353434E-6 低风险 0.38
CDM_260904-221105-020506-948621
2026-09-04T
22:11:02+0000
2.986 km
极远距离
1.318162E-6 低风险 0.37
CDM_260905-112605-020505-893221
2026-09-05T
11:26:17+0000
2.917 km
极远距离
9.347402E-7 极低风险 0.34